Regional Weather Roundup
Issued by NWS Kansas City/Pleasant Hill, MO

Home | Current Version | Previous Version | Graphics & Text | Print | Product List | Glossary Off
Versions: 1 2 3 4 5 6 7 8 9 10 11 12 13 14 15 16 17 18 19 20 21 22 23 24 25 26 27 28 29 30 31 32 33 34 35 36 37 38 39 40 41 42 43 44 45 46 47 48 49 50

000
ASUS43 KEAX 212010
RWREAX

WEATHER ROUNDUP FOR EASTERN KANSAS AND NORTHWEST MISSOURI
NATIONAL WEATHER SERVICE KANSAS CITY/PLEASANT HILL MO
200 PM CST TUE FEB 21 2017

KSZ040-057-103>105-MOZ028-029-037-043-212100-
...KANSAS CITY METROPOLITAN AREA...

CITY           SKY/WX    TMP DP  RH WIND       PRES   REMARKS
K.C. INTL      SUNNY     69  43  38 CALM      29.93F
K.C. DOWNTOWN  SUNNY     71  45  39 CALM      29.91F
LEES SUMMIT    SUNNY     69  50  50 N6        29.92F
OLATHE - IXD   SUNNY     70  46  42 MISG      29.94F
OLATHE - OJC   SUNNY     68  48  48 N6        29.93F
LAWRENCE       SUNNY     70  40  33 W8        29.94F

$$

MOZ001>008-011>017-020>025-030>033-038>040-044>046-053-054-212100-
...NORTHERN AND CENTRAL MISSOURI...

CITY           SKY/WX    TMP DP  RH WIND       PRES   REMARKS
ST. JOSEPH     SUNNY     67  39  35 W6        29.94F
WARRENSBURG    SUNNY     68  50  52 NW8       29.90F
WHITEMAN AFB   MOSUNNY   70  53  55 CALM      29.90F
CLINTON        MOSUNNY   72  54  53 N9        29.92S
SEDALIA        MOSUNNY   72  53  51 N9        29.92F
WARSAW         NOT AVBL
CHILLICOTHE      N/A     69  45  41 CALM      29.91F
KIRKSVILLE     SUNNY     68  48  48 CALM      29.91F

$$

MOZ041-047>049-056>058-063>065-088>090-097-212100-
...EASTERN AND SOUTHERN MISSOURI...

CITY           SKY/WX    TMP DP  RH WIND       PRES   REMARKS
ST. LOUIS INTL CLOUDY    65  58  78 E9        29.90F
SPIRIT OF STL  CLOUDY    65  60  84 E3        29.89F
COLUMBIA       MOSUNNY   67  58  72 E8        29.91F
JEFFERSON CITY CLOUDY    65  57  75 NE6       29.90F
ROLLA          CLOUDY    61  59  93 NE6       29.89F
OSAGE BEACH    CLOUDY    65  57  75 NE9       29.91F
SPRINGFIELD    CLOUDY    60  58  92 N10       29.90F FOG
BRANSON        PTSUNNY   57  57 100 N7        29.89S
JOPLIN         SUNNY     67  55  65 N16       29.92F
WEST PLAINS    CLOUDY    60  56  86 E9        29.88S

$$

IAZ060-094-KSZ022-034>040-054-083-096-NEZ052-066-093-212100-
...KANSAS...SOUTHEAST NEBRASKA AND IOWA...

CITY           SKY/WX    TMP DP  RH WIND       PRES   REMARKS
TOPEKA         SUNNY     67  39  35 CALM      29.94F
MANHATTAN      SUNNY     69  34  27 W3        29.94F
EMPORIA        SUNNY     67  35  30 NW5       29.96F
CHANUTE        SUNNY     71  49  45 NW9       29.94F
WICHITA        MOSUNNY   68  34  28 CALM      29.97F
OMAHA          SUNNY     68  40  35 S10       29.88F
LINCOLN        SUNNY     73  30  20 SW17G26   29.89F
FALLS CITY     SUNNY     67  36  31 MISG      29.93F
LAMONI         SUNNY     67  36  31 VRB6      29.92F
DES MOINES     MOSUNNY   67  37  33 SW13      29.91F

$$




USA.gov is the U.S. government's official web portal to all federal, state and local government web resources and services.